Prototyping > MPW Runs > Runschedule

Europractice Runschedule

DateTechnology
2010-03-01UMC L180 CIS 2P4M - Ultra Diode
2010-03-01LFoundry LF150 0.15u CMOS LF/RF - 1P6M + Thick Metal
2010-03-01austriamicrosystems 0.35u SiGe-BiCMOS S35 4M/4P
2010-03-01LFoundry LF150 0.15u CMOS LF/RF - 1P6M
2010-03-01UMC L180 CIS 1P4M - Conventional Diode
2010-03-01LFoundry LF150 0.15u CMOS LDMOS - 1P4M
2010-03-09MEMS - MEMSCAP METALMUMPS
2010-03-10TSMC 65nm CMOS Low Power Mixed-Signal/RF
2010-03-10TSMC 90nm CMOS General or LP MS/RF or LP Logic (12 inch)
2010-03-10TSMC 0.13u CMOS MS -MS/RF - Logic General (8 inch)
2010-03-10TSMC 0.18u CMOS General LOGIC, MS or MS/RF
2010-03-11AMIS 0.5u CMOS EEPROM C5F & C5N
2010-03-22UMC L180 Mixed-Mode/RF - 1P6M
2010-03-22UMC L90 Mixed-Mode/RF 1P9M2T1F
2010-03-29UMC L90 Mixed-Mode/RF - 1P9M2T1F
2010-03-29UMC L180 Low Leakage - 1P6M
2010-03-29UMC L180 Mixed-Mode/RF - 1P6M
2010-03-29UMC L180 Logic GII - 1P6M
2010-03-29LFoundry LF150 0.15u CMOS LDMOS 1P4M
2010-03-29LFoundry LF150 0.15u CMOS LP/RF - 1P6M + Thick Metal
2010-03-29LFoundry LF150 0.15u CMOS LP/RF - 1P6M
2010-03-29austriamicrosystems 0.18u CMOS C18 6M/1P/MiM
2010-03-30MEMS - MEMSCAP POLYMUMPS
2010-03-31TSMC 65nm CMOS Low Power - Mixed-Signal/RF
2010-03-31TSMC 0.13u CMOS MS - MS/RF - Logic General (12 inch)
2010-03-31TSMC 0.25u CMOS ms - MS/RF - Logic General
2010-04-02TSMC 90nm CMOS General or LP - MS/RF (12 inch)
2010-04-05AMIS 0.7u C07M-I2T30E 30V - 2M
2010-04-05AMIS 0.7u C07M-I2T30 30V - 2M
2010-04-05AMIS 0.7u C07M-I2T100 100V - 3M
2010-04-05AMIS 0.7u C07M-I2T100 100V - 2M
2010-04-05AMIS 0.7u C07M-A 2M/1P/PdiffC/HR
2010-04-05AMIS 0.7u C07mM-D 2M/1P
2010-04-07TSMC 90nm CMOS General - LP MS/RF - LP Logic (12 inch)
2010-04-07TSMC 0.18u CMOS General Logic - MS or MS/RF
2010-04-12TSMC 0.25u CMOS MS - MS/RF - LOgic General
2010-04-12austriamicrosystems 0.35u CMOS C35OPTO
2010-04-12austriamicrosystems 0.35u CMOS C35B4C3
2010-04-12austriamicrosystems 0.35u CMOS C35B3C3
2010-04-12AMIS 0.35 C035 - I3T25 5M
2010-04-12AMIS 0.35 C035 - I3T25 4M
2010-04-12AMIS 0.35 C035 - I3T25 3M
2010-04-12AMIS 0.35u C035U 5M
2010-04-12AMIS 0.35u C035U 3M
2010-04-12AMIS 0.35u C035U 4M
2010-04-13AMIS 0.35u C035M-I3T80U 80V - 5M
2010-04-13AMIS 0.35u C035M-I3T80U 80V - 4M
2010-04-13AMIS 0.35u C035M-I3T80U 80V - 3M
2010-04-13MEMS - MEMSCAP SOIMUMPS
2010-04-14TSMC 65nm CMOS LP Mixed-Signal/RF ACAD_EUR
2010-04-14TSMC 65nm CMOS Low Power Mixed-Signal/RF
2010-04-14TSMC 0.13u CMOS LS - MS/RF - Logic General (8 inch)
2010-04-19AMIS 0.35u C035M-A 5M/2P/HR
2010-04-19AMIS 0.35u Co35M-D 5M/1P
2010-04-22TSMC 0.13u CMOS MS -MS/RF - Logic General (12 inch)
2010-04-26UMC L130 Mixed-Mode/RF - 1P8M2T
2010-04-26IHP SG25H3 0.25u SiGe:C 5M
2010-04-26IHP SG25H1 0.25u SiGe:C 5M
2010-04-26IHP SGB25VGOD 0.25u SiGe:C 5M
2010-04-26IHP SGB25V 0.25u SiGe:C 5M
2010-04-26IHP SGB25V 0.25u SiGe:C
2010-04-26austriamicrosystems 0.35u HV CMOS H35 4M
2010-04-26austriamicrosystems 0.35u HV CMOS H35 3M
2010-04-28TSMC 65nm CMOS Low Power Mixed-Signal/RF
2010-04-29MEMS - TRONICS MEMSOI 8x8
2010-04-29MEMS - TRONICS MEMSOI 4x8
2010-04-29MEMS - TRONICS MEMSOI 4x4
2010-05-03UMC L130 Mixed-Mode/RF - 1P8M2T
2010-05-03UMC L130 Logic - 1P8M2T
2010-05-03LFoundry LF150 0.15u CMOS LDMOS - 1P4M
2010-05-03LFoundry LF150 0.15u CMOS LP/RF - 1P6M + Thick Metal
2010-05-03LFoundry LF150 0.15u CMOS LP/RF - 1P6M
2010-05-03AMIS 0.5u C05M-A 3M/2P/HR
2010-05-03AMIS 0.5u C05M-D 3M/1P
2010-05-05TSMC 90nm CMOS MS - MS/RF - Logic Gneral (12 inch)
2010-05-05TSMC 013u CMOS MS - MS/RF -Logic General (8 inch)
2010-05-06AMIS 0.5u EEPROM C5F & C5N
2010-05-10austriamicrosystems 0.18u HV CMOS H18 50V 4M/MiM
2010-05-12TSMC 65nm CMOS Low Power Mixed-Signal/RF
2010-05-12TSMC 0.18u CMOS General Logic - MS - MS/RF
2010-05-16TSMC 0.25u CMOS MS -MS/RF _ logic General
2010-05-17AMIS 0.35u C035 - I3T50 50V 5M
2010-05-17AMIS 0.35u C035 - I3T50 50V 3M
2010-05-17AMIS 0.35u C035 - I3T50 50V 4M
2010-05-20TSMC 0.13u CMOS MS -MS/RF - Logic General (12 inch)
2010-05-24UMC L90N Logic - 1P9M2T1F
2010-05-25austriamicrosystems 0.35u CMOS C35B4C3
2010-05-25austriamicrosystems 0.35u CMOS C35B3C3
2010-05-26TSMC 65nm CMOS Low POwer Mixed-Signal/RF
2010-05-31UMC L180 Mixed-Mode/RF - 1P6M
2010-05-31LFoundry LF150 0.15u CMOS LDMOS - 1P6M
2010-05-31LFoundry LF150 0.15u CMOS LP/RF - 1P6M + Thick Metal
2010-05-31LFoundry LF150 0.15u CMOS LP/RF - 1P6M
2010-06-03TSMC 90nm CMOS General - LP MS/RF - LP Logic (12 inch)
2010-06-03TSMC 0.13u CMOS MS - MS/RF - Logic General (8 inch)
2010-06-07UMC L180 Low Leakage - 1P6M
2010-06-07UMC L180 Mixed-Mode/RF - 1P6M
2010-06-07UMC L180 Logic GII - 1P6M
2010-06-07austriamicrosystems 0.35u SiGe-BiCmos S35 - 4M/4P
2010-06-07AMIS 0.35u C035 - I3T25 5M
2010-06-07AMIS 0.35u C035 - I3T25 4M
2010-06-07AMIS 0.35u C035 - I3T25 3M
2010-06-07AMIS 0.35u C035U 5M
2010-06-07AMIS 0.35u C035U 3M
2010-06-07AMIS 0.35u C035U 4M
2010-06-09TSMC 65nm CMOS Low Power Mixed-Signal/RF
2010-06-09TSMC 0.18u CMOS General Logic - MS - MS/RF
2010-06-21UMC L90 Mixed-Mode/RF 1P9M2T1F
2010-06-21AMIS 0.7u C07M-I2T30E 30V - 2M
2010-06-21AMIS 0.7u C07M-I2T30 30V - 2M
2010-06-21AMIS 0.7u C07M-I2T100 100V - 3M
2010-06-21AMIS 0.7u C07M-I2T100 100V - 2M
2010-06-21AMIS 0.7u C07M-A 2M/1P/PdiffC/HR
2010-06-21AMIS 0.7u C07M-D 2M/1P
2010-06-28UMC L90 Mixed-Mode/RF - 1P9M2T1F
2010-06-28UMC L250 1P5M MM/RFCMOS
2010-06-28LFoundry LF150 0.15u CMOS LDMOS - 1P4M
2010-06-28LFoundry LF150 0.15u CMOS LP/RF - 1P6M + Thick Metal
2010-06-28LFoundry LF150 0.15u CMOS LP/RF - 1P6M
2010-06-28AMIS 0.35u C035M-A 5M/2P/HR
2010-06-28AMIS 0.35u C035M-D 5M/1P
2010-06-29MEMS - MEMSCAP POLYMUMPS
2010-07-01TSMC 90nm CMOS General - Lp MS/RF - LP Logic (12 inch)
2010-07-08AMIS 0.5u VMOS EEPROM C5F & C5N
2010-07-12UMC L180 Mixed-Mode/RF - 1P6M
2010-07-12austriamicrosystems 0.35u CMOS C35B43
2010-07-12austriamicrosystems 0.35u CMOS C35B3C3
2010-07-12AMIS 0.35u C035M-I3T80U 80V - 5
2010-07-12AMIS 0.35u C035M-I3T80U 80V - 4
2010-07-12AMIS 0.35u C035M-I3T80U 80V - 3M
2010-07-13MEMS - MEMSCAP SOIMUMPS
2010-07-19UMC L180 Low Leakage - 1P6M
2010-07-19UMC L180 Mixed-Mode/RF - 1P6M
2010-07-19UMC L180 Logic GII - 1P6M
2010-07-26LFoundry LF150 0.15u CMOS OPTO - Photo diode
2010-07-26LFoundry LF150 0.15u CMOS LDMOS - 1P4M
2010-07-26LFoundry LF150 0.15u CMOS LP/RF - 1P6M + Thick Metal
2010-07-26LFoundry LF150 0.15u CMOS LP/RF - 1P6M
2010-07-26austriamicrosystems 0.18u CMOS C18 6M/1P/MiM
2010-07-26UMC L130 Mixed-Mode/RF - 1P8M2T

All rights reserved